Home   Weather   New Haven   Past weeks

Flag for USA Past Weather in New Haven, Connecticut, USA — Yesterday and Last 2 Weeks

Now
52 °F

Fog.


Feels Like: 50 °F
Forecast: 47 / 56 °F
Wind: 6 mph from Southeast

Location: Tweed-New Haven Airport

Current Time: Feb 25, 2017 at 6:29:20 pm

Latest Report: Feb 25, 2017 at 5:53 pm


Visibility: 1 mi

Pressure: 29.53 "Hg

Humidity: 93%

Dew Point: 50 °F

Location of New HavenLocation

Past Weather in New Haven — Graph

°F

New Haven Temperature Yesterday

Maximum temperature yesterday: 62 °F (at 1:53 pm)
Minimum temperature yesterday: 37 °F (at 6:24 am)
Average temperature yesterday: 48 °F

High & Low Weather Summary for the Past Weeks

 TemperatureHumidityPressure
High62 °F (Feb 24, 1:53 pm)100% (Feb 12, 10:53 pm)30.40 "Hg (Feb 12, 10:53 pm)
Low19 °F (Feb 14, 4:53 am)25% (Feb 20, 3:53 pm)29.27 "Hg (Feb 15, 4:53 pm)
Average37 °F74%29.84 "Hg
* Reported Feb 10 4:53 pm — Feb 25 4:53 pm, New Haven, Weather by CustomWeather, © 2017

Note: Actual official high and low records may vary slightly from our data, if they occured in-between our weather recording intervals... More about our weather records

Advertising

New Haven Weather History for the Previous 24 Hours

Scroll right to see more
 ConditionsComfort  
Time TempWeatherWind HumidityBarometerVisibility
4:53 pm
Sat, Feb 25
54 °FFog.13 mph90%29.51 "Hg1 mi
3:53 pm57 °FPartly sunny.12 mph83%29.54 "Hg10 mi
2:53 pm57 °FMore clouds than sun.10 mph81%29.59 "Hg10 mi
1:53 pm58 °FMore clouds than sun.9 mph78%29.63 "Hg10 mi
1:15 pm58 °FMostly cloudy.7 mph81%29.66 "Hg10 mi
1:08 pm58 °FCloudy.10 mph81%29.66 "Hg10 mi
1:00 pm59 °FPartly sunny.8 mph78%29.67 "Hg10 mi
12:11 pm60 °FScattered clouds.8 mph80%29.70 "Hg10 mi
12:04 pm59 °FPartly sunny.10 mph81%29.71 "Hg10 mi
11:53 am59 °FBroken clouds.10 mph84%29.71 "Hg10 mi
11:27 am57 °FFog.9 mph90%29.73 "Hg3 mi
11:07 am55 °FFog.7 mph100%29.74 "Hg3 mi
10:39 am53 °FFog.6 mph100%29.75 "Hg1 mi
9:53 am51 °FFog.7 mph100%29.77 "Hg0 mi
8:53 am52 °FFog.6 mph100%29.78 "Hg0 mi
7:53 am50 °FFog.3 mph100%29.81 "Hg0 mi
6:53 am49 °FFog.9 mph100%29.80 "Hg0 mi
5:53 am50 °FFog.3 mph100%29.82 "Hg0 mi
4:53 am50 °FFog.3 mph100%29.82 "Hg0 mi
3:53 am51 °FFog.No wind96%29.84 "Hg0 mi
2:53 am50 °FFog.No wind100%29.85 "Hg0 mi
1:53 am50 °FFog.No wind100%29.86 "Hg0 mi
1:23 am51 °FFog.No wind96%29.86 "Hg0 mi
12:53 am50 °FFog.No wind100%29.86 "Hg1 mi
12:31 am50 °FFog.No wind100%29.87 "Hg0 mi
12:20 am51 °FFog.No wind96%29.87 "Hg0 mi
11:53 pm
Fri, Feb 24
51 °FFog.No wind96%29.88 "Hg0 mi
11:43 pm51 °FFog.No wind96%29.88 "Hg0 mi
11:05 pm50 °FFog.No wind100%29.88 "Hg1 mi
10:53 pm51 °FFog.No wind96%29.88 "Hg1 mi
10:32 pm50 °FLow clouds.No wind96%29.88 "Hg7 mi
10:04 pm47 °FFog.No wind97%29.88 "Hg2 mi
9:53 pm46 °FFog.3 mph100%29.88 "Hg4 mi
8:53 pm47 °FFog.5 mph97%29.89 "Hg5 mi
7:53 pm48 °FPassing clouds.3 mph96%29.88 "Hg9 mi
6:53 pm50 °FPassing clouds.No wind89%29.89 "Hg10 mi
Weather by CustomWeather, © 2017

See weather overviewHow to use our weather pages